Weather in Semenikhino

Russia / Oryol Oblast     52°33′25″N   37°31′44″E
temp.,
°C
wind,
m/s
gust,
m/s
humid.,
%
clouds,
%
prec.,
mm/h
press.,
hPa
HPBL,
m
13 may, thu
thu1300:00+9ese4108690 0.0 1017270
03:00+9ese488712 0.0 1016246
06:00+8ese51292100 0.0 1016438
09:00+9sse4895100 3.1 1016441
12:00+13se577993 1.5 1016966
15:00+15sse687198 1.9 10151286
18:00+15sse46805 0.3 1014625
21:00+11se34911 0.3 101545
14 may, fri
fri1400:00+11se349298 0.0 101653
03:00+10ese3393100 0.0 101648
06:00+11ese3795100 0.1 1015152
09:00+17se5982100 0.3 1014468
12:00+20se710689 0.0 10131005
15:00+22se71272100 1.2 10111129
18:00+19sse61481100 0.7 1011623
21:00+16sse369090 1.4 1010104
15 may, sat
sat1500:00+15sse31095100 5.8 1009230
03:00+15s349599 6.3 101076
06:00+14ssw3591100 0.0 1010114
09:00+17sw4779100 0.0 1011452
12:00+20ssw576275 0.0 10121365
15:00+22ssw575532 0.0 10122001
18:00+19ssw487577 0.6 1012421
21:00+15ssw338639 0.8 101342
16 may, sun
sun1600:00+13s33875 0.0 101330
03:00+12sw228932 0.0 101429
06:00+13sw228933 0.0 101557
09:00+17w22722 0.0 1015428
12:00+21ssw12590 0.0 10151039
15:00+23ese1252100 0.0 10141702
18:00+22ene236393 0.0 1013163
21:00+17ene357574 0.0 101368
17 may, mon
mon1700:00+16ene5128175 0.0 1013240
03:00+15ene5119070 0.0 1012204
06:00+15ene5128650 0.0 1011261
09:00+20ese697073 0.0 1011384
12:00+24ese7955100 0.0 1010815
15:00+25ese6105796 0.0 10101009
18:00+23ese713645 0.0 1009602
21:00+19ese61771100 0.0 1009473